Lexington Weather

Lexington, Massachusetts, USA

45°F
4/22/2024 9:23am 
  • Lexington Conditions: Clear
  • Temperature: 44.6°F / 7.0°CWarmer 2.7°F than last hour.
  • Dew Point: 25.7°FDecreased 2.2°Fsince last hour.
  • Relative Humidity: 47%Decreased 10.0% since last hour.
  • Wind: Calm, 10-min avg: Calm, gust: 6 mph
  • Barometer: 29.96 in Steady
  • Visibility: 10 miles
  • Rain Today: 0.00 in
  •   

Regional Weather Roundup
for Boston, MA

        
000
ASUS41 KBOX 160110
RWRBOX

REGIONAL WEATHER ROUNDUP
NATIONAL WEATHER SERVICE BOSTON/NORTON MA
900 PM EDT MON APR 15 2024

NOTE:  "FAIR" INDICATES FEW OR NO CLOUDS BELOW 12,000 FEET WITH NO 
SIGNIFICANT WEATHER AND/OR OBSTRUCTIONS TO VISIBILITY.

MAZALL-160200-
EASTERN MASSACHUSETTS
  
CITY           SKY/WX    TMP DP  RH WIND       PRES   REMARKS
BOSTON         PTCLDY    58  41  53 N9        29.93R                  
BEVERLY        CLEAR     54  41  61 N9        29.92R                  
LAWRENCE       CLEAR     54  40  59 NW7       29.94R                  
BEDFORD          N/A    N/A N/A N/A MISG      29.91R                  
NORWOOD        MOCLDY    62  34  35 NW9       29.93R                  
MARSHFIELD     CLOUDY    55  41  58 VRB6G14   29.94R                  
PLYMOUTH       LGT RAIN  61  41  47 N8        29.91R                  
TAUNTON        MOCLDY    65  37  35 NW7       29.92R                  
NEW BEDFORD    LGT RAIN  62  47  57 N6        29.89R                  
$$

MAZALL-160200-
CAPE COD AND THE ISLANDS
  
CITY           SKY/WX    TMP DP  RH WIND       PRES   REMARKS
FALMOUTH       CLOUDY    57  48  72 N9        29.91R                  
HYANNIS        MOCLDY    59  45  59 N13       29.89R                  
CHATHAM        PTCLDY    59  47  64 VRB5      29.91R                  
PROVINCETOWN   MOCLDY    54  45  71 NE7       29.94R                  
NANTUCKET      CLOUDY    53  49  86 N8        29.91R                  
MARTHAS VNYRD  CLOUDY    58  51  78 CALM      29.90R                  
$$
 
MAZALL-160200-
CENTRAL AND WESTERN MASSACHUSETTS
  
CITY           SKY/WX    TMP DP  RH WIND       PRES   REMARKS
WORCESTER      CLEAR     55  30  38 NW14G22   29.92R                  
FITCHBURG      CLEAR     54  37  52 N5        29.93R                  
ORANGE         CLEAR     53  33  46 N10       29.95R                  
SPRINGFIELD    PTCLDY    57  30  35 N10       29.90R                  
WESTFIELD      PTCLDY    58  31  35 N7G23     29.92R                  
NORTH ADAMS    CLEAR     54  32  43 W9        29.96R                  
PITTSFIELD     CLEAR     51  28  41 NW12G28   29.94R                  
$$
 
RIZALL-160200-
RHODE ISLAND
  
CITY           SKY/WX    TMP DP  RH WIND       PRES   REMARKS
PROVIDENCE     MOCLDY    63  41  44 N7        29.92R                  
NEWPORT        MOCLDY    60  45  57 N7        29.89R                  
BLOCK ISLAND   MOCLDY    53  47  79 W9        29.91R                  
SMITHFIELD     MOCLDY    59  38  45 N8        29.94R                  
WESTERLY       MOCLDY    56  50  80 NE3       29.89R                  
$$
 
CTZALL-160200-
CONNECTICUT
  
CITY           SKY/WX    TMP DP  RH WIND       PRES   REMARKS
BRADLEY INTL   PTCLDY    59  36  42 VRB5      29.94R                  
HARTFORD       MOCLDY    62  38  40 N8        29.93R                  
PLAINVILLE     MOCLDY    60  37  42 N9        29.94R                  
BRIDGEPORT     CLEAR     65  40  39 N13G24    29.90R                  
DANBURY        PTCLDY    61  37  41 N7        29.94R                  
GROTON         MOCLDY    64  45  49 N7        29.89R                  
NEW HAVEN      CLEAR     65  42  43 N10       29.90R                  
CHESTER        PTCLDY    63  37  39 N10       29.91R                  
MERIDEN        MOCLDY    64  37  36 N9        29.93R                  
WILLIMANTIC    PTCLDY    61  37  41 N9        29.94R                  
OXFORD         MOCLDY    58  39  49 N13       29.94R                  
$$

MEZ002-015-021-024-NHZ003-005-008-011-012-014-VTZ005-008-160200-
NORTHERN NEW ENGLAND
  
CITY           SKY/WX    TMP DP  RH WIND       PRES   REMARKS
PORTLAND ME    CLEAR     51  37  58 NW8       29.92R                  
BANGOR ME      PTCLDY    51  33  50 W3        29.89R                  
CONCORD NH     CLEAR     49  40  71 NW3       29.94R                  
MANCHESTER NH  PTCLDY    54  39  57 NW10      29.93R                  
NASHUA NH      CLEAR     54  40  59 NW8       29.94R                  
PORTSMOUTH NH  CLEAR     52  41  65 W7        29.92R                  
JAFFREY NH     CLEAR     48  40  73 CALM      29.94R                  
KEENE NH       CLEAR     48  41  76 CALM      29.96R                  
BURLINGTON VT  MOCLDY    49  35  58 S5        29.93R                  
MT. WASHINGTON BLWGSNOW  23  21  93 NW41        N/A  VSB 1/8 WCI   3  
$$

NYZ052-076-160200-
EASTERN NEW YORK
  
CITY           SKY/WX    TMP DP  RH WIND       PRES   REMARKS
ALBANY         CLEAR     52  31  44 CALM      29.98R                  
NEW YORK CITY  PTCLDY    62  47  57 NE7       29.86R                  
$$
 
ANZALL-160200-
MARINE OBSERVATIONS
  
STATION/POSITION TIME  TEMP    WIND        PRES    VSBY  WAVE
                       AIR SEA DIR/SP/G                  HT/PER
                 (UTC) (F)     (DEG/KT/KT) (MB)    (MI)  (FT/S)
BOSTON BUOY      0050   49      20/  8/ 10 1013.1R         3/11
BUZZARDS BAY     0000   55     310/ 13/ 15 1011.9R
NANTUCKET SOUND  0050   56 46  310/  6/  6 1012.1R         1/ 5
MASS BAY-STELLWA 2304   53 45   10/ 12/ 16 1010.6R  1 7/8  3/11
ISLE OF SHOALS   0000   55     320/ 21/ 21 1011.7R
S OF BLOCK IS    0056      45                N/A           6/ 8
$$

......................KEY.........................
  SKY/WX - SKY CONDITION/PRESENT WEATHER
  TMP    - TEMPERATURE IN FAHRENHEIT
  DWPT   - DEWPOINT IN FAHRENHEIT
  RH     - RELATIVE HUMIDITY IN PERCENT
  WIND   - DIRECTION AND SPEED IN MPH
  PRES   - MEAN SEA LEVEL PRESSURE IN INCHES OF HG
  WCI    - WIND CHILL INDEX
  VSB    - VISIBILITY IN MILES
  HX     - HEAT INDEX
  TC     - TEMPERATURE IN CELSIUS
  VRB    - VARIABLE WIND DIRECTION
  N/A    - NOT AVAILABLE
  
      

Other recent Regional Weather Roundups

Mon Apr 22, 9:10am EDT

Mon Apr 22, 8:10am EDT

Mon Apr 22, 7:10am EDT

Mon Apr 22, 6:10am EDT

Mon Apr 22, 5:10am EDT

Mon Apr 22, 4:10am EDT

Mon Apr 22, 3:10am EDT

Mon Apr 22, 2:10am EDT

Mon Apr 22, 1:10am EDT

Mon Apr 22, 12:10am EDT

Sun Apr 21, 11:10pm EDT

Sun Apr 21, 10:10pm EDT

Sun Apr 21, 9:10pm EDT

Sun Apr 21, 8:10pm EDT

Sun Apr 21, 7:10pm EDT

Sun Apr 21, 6:10pm EDT

Sun Apr 21, 5:10pm EDT

Sun Apr 21, 4:10pm EDT

Sun Apr 21, 3:10pm EDT

Sun Apr 21, 2:10pm EDT

Sun Apr 21, 1:10pm EDT

Sun Apr 21, 12:10pm EDT

Sun Apr 21, 11:10am EDT

Sun Apr 21, 10:10am EDT

Sun Apr 21, 9:10am EDT

Sun Apr 21, 8:10am EDT

Sun Apr 21, 7:10am EDT

Sun Apr 21, 6:10am EDT

Sun Apr 21, 5:10am EDT

Sun Apr 21, 4:10am EDT

Sun Apr 21, 3:10am EDT

Sun Apr 21, 2:10am EDT

Sun Apr 21, 1:10am EDT

Sun Apr 21, 12:10am EDT

Sat Apr 20, 11:10pm EDT

Sat Apr 20, 10:10pm EDT

Sat Apr 20, 9:10pm EDT

Sat Apr 20, 8:10pm EDT

Sat Apr 20, 7:10pm EDT

Sat Apr 20, 6:10pm EDT

Sat Apr 20, 5:10pm EDT

Sat Apr 20, 4:10pm EDT

Sat Apr 20, 3:10pm EDT

Sat Apr 20, 2:10pm EDT

Sat Apr 20, 1:10pm EDT

Sat Apr 20, 12:10pm EDT

Sat Apr 20, 11:10am EDT

Sat Apr 20, 10:10am EDT

Sat Apr 20, 9:10am EDT

Sat Apr 20, 8:10am EDT

Sat Apr 20, 7:10am EDT

Sat Apr 20, 6:10am EDT

Sat Apr 20, 5:10am EDT

Sat Apr 20, 4:10am EDT

Sat Apr 20, 3:10am EDT

Sat Apr 20, 2:10am EDT

Sat Apr 20, 1:10am EDT

Sat Apr 20, 12:10am EDT

Fri Apr 19, 11:10pm EDT

Fri Apr 19, 10:10pm EDT

Fri Apr 19, 9:10pm EDT

Fri Apr 19, 8:10pm EDT

Fri Apr 19, 7:10pm EDT

Fri Apr 19, 6:10pm EDT

Fri Apr 19, 5:10pm EDT

Fri Apr 19, 4:10pm EDT

Fri Apr 19, 3:10pm EDT

Fri Apr 19, 2:10pm EDT

Fri Apr 19, 1:10pm EDT

Fri Apr 19, 12:10pm EDT

Fri Apr 19, 11:10am EDT

Fri Apr 19, 10:10am EDT

Fri Apr 19, 9:10am EDT

Fri Apr 19, 8:10am EDT

Fri Apr 19, 7:10am EDT

Fri Apr 19, 6:10am EDT

Fri Apr 19, 5:10am EDT

Fri Apr 19, 4:10am EDT

Fri Apr 19, 3:10am EDT

Fri Apr 19, 2:10am EDT

Fri Apr 19, 1:10am EDT

Fri Apr 19, 12:10am EDT

Thu Apr 18, 11:10pm EDT

Thu Apr 18, 10:10pm EDT

Thu Apr 18, 9:10pm EDT

Thu Apr 18, 8:10pm EDT

Thu Apr 18, 7:10pm EDT

Thu Apr 18, 6:10pm EDT

Thu Apr 18, 5:10pm EDT

Thu Apr 18, 4:10pm EDT

Thu Apr 18, 3:10pm EDT

Thu Apr 18, 2:10pm EDT

Thu Apr 18, 1:10pm EDT

Thu Apr 18, 12:10pm EDT

Thu Apr 18, 11:10am EDT

Thu Apr 18, 10:10am EDT

Thu Apr 18, 9:10am EDT

Thu Apr 18, 8:10am EDT

Thu Apr 18, 7:10am EDT

Thu Apr 18, 6:10am EDT

Thu Apr 18, 5:10am EDT

Thu Apr 18, 4:10am EDT

Thu Apr 18, 3:10am EDT

Thu Apr 18, 2:10am EDT

Thu Apr 18, 1:10am EDT

Thu Apr 18, 12:10am EDT

Wed Apr 17, 11:10pm EDT

Wed Apr 17, 10:10pm EDT

Wed Apr 17, 9:10pm EDT

Wed Apr 17, 8:10pm EDT

Wed Apr 17, 7:10pm EDT

Wed Apr 17, 6:10pm EDT

Wed Apr 17, 5:10pm EDT

Wed Apr 17, 4:10pm EDT

Wed Apr 17, 3:10pm EDT

Wed Apr 17, 2:10pm EDT

Wed Apr 17, 1:10pm EDT

Wed Apr 17, 12:10pm EDT

Wed Apr 17, 11:10am EDT

Wed Apr 17, 10:10am EDT

Wed Apr 17, 9:10am EDT

Wed Apr 17, 8:10am EDT

Wed Apr 17, 7:10am EDT

Wed Apr 17, 6:10am EDT

Wed Apr 17, 5:10am EDT

Wed Apr 17, 4:10am EDT

Wed Apr 17, 3:10am EDT

Wed Apr 17, 2:10am EDT

Wed Apr 17, 1:10am EDT

Wed Apr 17, 12:10am EDT

Tue Apr 16, 11:10pm EDT

Tue Apr 16, 10:10pm EDT

Tue Apr 16, 9:10pm EDT

Tue Apr 16, 8:10pm EDT

Tue Apr 16, 7:10pm EDT

Tue Apr 16, 6:10pm EDT

Tue Apr 16, 5:10pm EDT

Tue Apr 16, 4:10pm EDT

Tue Apr 16, 3:10pm EDT

Tue Apr 16, 2:10pm EDT

Tue Apr 16, 1:10pm EDT

Tue Apr 16, 12:10pm EDT

Tue Apr 16, 11:10am EDT

Tue Apr 16, 10:10am EDT

Tue Apr 16, 9:10am EDT

Tue Apr 16, 8:10am EDT

Tue Apr 16, 7:10am EDT

Tue Apr 16, 6:10am EDT

Tue Apr 16, 5:10am EDT

Tue Apr 16, 4:10am EDT

Tue Apr 16, 3:10am EDT

Tue Apr 16, 2:10am EDT

Tue Apr 16, 1:10am EDT

Tue Apr 16, 12:10am EDT

Mon Apr 15, 11:10pm EDT

Mon Apr 15, 10:10pm EDT

Mon Apr 15, 8:10pm EDT

Mon Apr 15, 7:10pm EDT

Mon Apr 15, 6:10pm EDT

Mon Apr 15, 5:10pm EDT

Mon Apr 15, 4:10pm EDT

Mon Apr 15, 3:10pm EDT

Mon Apr 15, 2:10pm EDT

Mon Apr 15, 1:10pm EDT

Mon Apr 15, 12:10pm EDT

Mon Apr 15, 11:10am EDT

Mon Apr 15, 10:10am EDT